�������l�o���
Date,Time,MP-1(��Sv/h),MP-2(��Sv/h),MP-3(��Sv/h),MP-4(��Sv/h),MP-5(��Sv/h),MP-6(��Sv/h),MP-7(��Sv/h),MP-8(��Sv/h),����,����(m/s),���J
2019/04/23,00:00,0.780,1.142,0.787,1.460,1.065,0.440,0.779,0.735,�k�k��,2.8,��
2019/04/23,00:10,0.776,1.142,0.787,1.460,1.064,0.440,0.780,0.736,�k�k��,2.6,��
2019/04/23,00:20,0.777,1.144,0.786,1.456,1.066,0.439,0.781,0.735,�k��,2.3,��
2019/04/23,00:30,0.777,1.144,0.784,1.459,1.065,0.439,0.782,0.736,�k��,3.0,��
2019/04/23,00:40,0.777,1.139,0.785,1.460,1.065,0.440,0.779,0.737,�k��,2.2,��
2019/04/23,00:50,0.777,1.139,0.784,1.459,1.066,0.439,0.780,0.737,���k��,2.0,��
2019/04/23,01:00,0.778,1.139,0.785,1.458,1.065,0.439,0.781,0.736,���k��,2.2,��
2019/04/23,01:10,0.778,1.143,0.786,1.458,1.065,0.440,0.780,0.737,��,1.7,��
2019/04/23,01:20,0.777,1.142,0.786,1.457,1.066,0.438,0.778,0.736,��,1.2,��
2019/04/23,01:30,0.778,1.143,0.786,1.458,1.065,0.440,0.779,0.735,���쐼,1.2,��
2019/04/23,01:40,0.778,1.140,0.786,1.459,1.063,0.439,0.780,0.737,���쐼,1.1,��
2019/04/23,01:50,0.779,1.142,0.786,1.458,1.065,0.440,0.779,0.735,���쐼,1.2,��
2019/04/23,02:00,0.777,1.139,0.786,1.455,1.064,0.438,0.780,0.736,�쐼,1.1,��
2019/04/23,02:10,0.777,1.140,0.785,1.459,1.065,0.440,0.780,0.737,�쐼,1.2,��
2019/04/23,02:20,0.777,1.139,0.785,1.459,1.066,0.440,0.780,0.736,���쐼,1.2,��
2019/04/23,02:30,0.778,1.139,0.783,1.458,1.066,0.441,0.780,0.737,�쐼,1.4,��
2019/04/23,02:40,0.775,1.143,0.784,1.454,1.064,0.440,0.778,0.735,��쐼,1.2,��
2019/04/23,02:50,0.779,1.140,0.784,1.457,1.065,0.439,0.779,0.736,��쐼,1.4,��
2019/04/23,03:00,0.777,1.140,0.787,1.459,1.065,0.439,0.779,0.737,��쐼,1.7,��
2019/04/23,03:10,0.777,1.141,0.785,1.458,1.065,0.439,0.779,0.737,�쐼,1.5,��
2019/04/23,03:20,0.776,1.139,0.787,1.455,1.065,0.439,0.780,0.735,��쐼,2.2,��
2019/04/23,03:30,0.777,1.141,0.784,1.458,1.065,0.439,0.781,0.736,��쐼,2.6,��
2019/04/23,03:40,0.778,1.139,0.784,1.453,1.063,0.440,0.779,0.737,��쐼,2.3,��
2019/04/23,03:50,0.776,1.140,0.786,1.459,1.065,0.440,0.778,0.737,��,2.0,��
2019/04/23,04:00,0.777,1.141,0.784,1.455,1.063,0.440,0.780,0.735,��쐼,1.9,��
2019/04/23,04:10,0.776,1.139,0.788,1.458,1.062,0.438,0.778,0.736,��,2.3,��
2019/04/23,04:20,0.778,1.138,0.784,1.458,1.062,0.439,0.780,0.735,��쐼,2.0,��
2019/04/23,04:30,0.776,1.141,0.786,1.459,1.062,0.439,0.778,0.737,��쐼,2.2,��
2019/04/23,04:40,0.777,1.141,0.784,1.456,1.064,0.439,0.780,0.736,��쐼,1.9,��
2019/04/23,04:50,0.776,1.139,0.785,1.456,1.064,0.438,0.779,0.737,��쐼,1.5,��
2019/04/23,05:00,0.774,1.139,0.785,1.457,1.063,0.439,0.778,0.736,��,1.7,��
2019/04/23,05:10,0.777,1.139,0.785,1.459,1.063,0.439,0.779,0.736,��쐼,1.7,��
2019/04/23,05:20,0.774,1.140,0.783,1.456,1.064,0.439,0.779,0.736,�쐼,2.0,��
2019/04/23,05:30,0.777,1.138,0.784,1.459,1.063,0.438,0.778,0.735,��쐼,2.3,��
2019/04/23,05:40,0.776,1.141,0.785,1.458,1.061,0.438,0.781,0.737,��쐼,1.9,��
2019/04/23,05:50,0.776,1.140,0.785,1.459,1.065,0.437,0.780,0.736,��,1.4,��
2019/04/23,06:00,0.775,1.139,0.784,1.458,1.063,0.439,0.781,0.735,��,1.9,��
2019/04/23,06:10,0.777,1.140,0.787,1.458,1.063,0.438,0.781,0.735,��쓌,1.7,��
2019/04/23,06:20,0.776,1.140,0.786,1.458,1.062,0.440,0.779,0.737,��,2.0,��
2019/04/23,06:30,0.774,1.143,0.787,1.458,1.067,0.439,0.779,0.738,��,2.3,��
2019/04/23,06:40,0.777,1.141,0.785,1.460,1.064,0.439,0.779,0.737,��쓌,2.5,��
2019/04/23,06:50,0.779,1.143,0.787,1.459,1.064,0.440,0.782,0.737,��,2.0,��
2019/04/23,07:00,0.778,1.141,0.788,1.458,1.066,0.440,0.780,0.737,��,1.9,��
2019/04/23,07:10,0.776,1.142,0.786,1.458,1.066,0.440,0.782,0.736,��,1.7,��
2019/04/23,07:20,0.778,1.137,0.785,1.459,1.067,0.440,0.782,0.737,��,2.0,��
2019/04/23,07:30,0.778,1.139,0.786,1.462,1.066,0.439,0.780,0.737,��,1.5,��
2019/04/23,07:40,0.779,1.139,0.785,1.459,1.066,0.437,0.781,0.739,��쓌,2.0,��
2019/04/23,07:50,0.779,1.140,0.789,1.460,1.064,0.437,0.781,0.737,��쓌,2.0,��
2019/04/23,08:00,0.778,1.139,0.787,1.460,1.066,0.437,0.780,0.738,��쓌,1.7,��
2019/04/23,08:10,0.780,1.139,0.786,1.459,1.065,0.438,0.778,0.738,�쓌,2.3,��
2019/04/23,08:20,0.777,1.141,0.786,1.459,1.065,0.439,0.779,0.736,�쓌,3.9,��
2019/04/23,08:30,0.779,1.144,0.787,1.460,1.063,0.439,0.780,0.735,��쓌,2.9,��
2019/04/23,08:40,0.779,1.138,0.787,1.459,1.065,0.440,0.779,0.736,�쓌,3.4,��
2019/04/23,08:50,0.779,1.139,0.786,1.459,1.065,0.439,0.778,0.736,��쓌,3.8,��
2019/04/23,09:00,0.781,1.138,0.786,1.461,1.067,0.440,0.779,0.736,�쓌,3.7,��
2019/04/23,09:10,0.779,1.137,0.787,1.460,1.065,0.438,0.779,0.735,�쓌,4.2,��
2019/04/23,09:20,0.778,1.136,0.785,1.456,1.067,0.437,0.779,0.736,�쓌,4.4,��
2019/04/23,09:30,0.777,1.138,0.786,1.460,1.067,0.438,0.778,0.736,�쓌,5.4,��
2019/04/23,09:40,0.779,1.144,0.787,1.461,1.067,0.439,0.778,0.735,�쓌,6.2,��
2019/04/23,09:50,0.780,1.138,0.786,1.459,1.064,0.440,0.779,0.734,�쓌,6.4,��
2019/04/23,10:00,0.780,1.138,0.787,1.461,1.065,0.439,0.778,0.735,�쓌,5.7,��
2019/04/23,10:10,0.778,1.136,0.786,1.459,1.065,0.438,0.780,0.734,�쓌,4.9,��
2019/04/23,10:20,0.778,1.140,0.784,1.460,1.065,0.439,0.780,0.735,��쓌,8.0,��
2019/04/23,10:30,0.778,1.138,0.785,1.460,1.066,0.439,0.779,0.734,��쓌,6.7,��
2019/04/23,10:40,0.777,1.140,0.785,1.463,1.063,0.439,0.779,0.734,��쓌,7.0,��
2019/04/23,10:50,0.779,1.140,0.786,1.462,1.064,0.438,0.781,0.734,��쓌,8.3,��
2019/04/23,11:00,0.779,1.141,0.785,1.462,1.068,0.440,0.780,0.735,��쓌,9.8,��
2019/04/23,11:10,0.780,1.142,0.786,1.460,1.065,0.439,0.782,0.733,��쓌,6.3,��
2019/04/23,11:20,0.779,1.140,0.783,1.460,1.067,0.437,0.780,0.736,��쓌,8.1,��
2019/04/23,11:30,0.779,1.141,0.785,1.461,1.067,0.440,0.781,0.736,��쓌,9.5,��
2019/04/23,11:40,0.778,1.144,0.787,1.459,1.067,0.439,0.780,0.735,��쓌,9.1,��
2019/04/23,11:50,0.780,1.142,0.785,1.458,1.067,0.437,0.780,0.737,��쓌,11.8,��
2019/04/23,12:00,0.781,1.144,0.785,1.460,1.068,0.440,0.780,0.736,��쓌,13.0,��
2019/04/23,12:10,0.778,1.143,0.786,1.456,1.068,0.441,0.780,0.735,��쓌,12.7,��
2019/04/23,12:20,0.781,1.143,0.785,1.458,1.068,0.441,0.782,0.735,��쓌,12.4,��
2019/04/23,12:30,0.782,1.143,0.786,1.457,1.069,0.439,0.780,0.736,��쓌,13.5,��
2019/04/23,12:40,0.781,1.143,0.786,1.460,1.067,0.440,0.782,0.735,��쓌,11.8,��
2019/04/23,12:50,0.779,1.142,0.785,1.458,1.068,0.441,0.782,0.736,��쓌,12.7,��
2019/04/23,13:00,0.782,1.141,0.786,1.460,1.069,0.441,0.783,0.736,��쓌,12.1,��
2019/04/23,13:10,0.781,1.143,0.787,1.462,1.068,0.442,0.781,0.737,��쓌,15.7,��
2019/04/23,13:20,0.779,1.142,0.785,1.464,1.069,0.443,0.782,0.736,��쓌,13.0,��
2019/04/23,13:30,0.778,1.141,0.787,1.461,1.070,0.441,0.781,0.736,��쓌,14.6,��
2019/04/23,13:40,0.780,1.140,0.786,1.461,1.068,0.441,0.781,0.736,��쓌,12.8,��
2019/04/23,13:50,0.780,1.141,0.787,1.461,1.070,0.441,0.781,0.737,��쓌,12.5,��
2019/04/23,14:00,0.779,1.138,0.787,1.464,1.069,0.441,0.781,0.737,��쓌,12.8,��
2019/04/23,14:10,0.779,1.140,0.786,1.463,1.069,0.442,0.781,0.735,��쓌,13.0,��
2019/04/23,14:20,0.780,1.144,0.787,1.461,1.070,0.443,0.780,0.735,��쓌,13.6,��
2019/04/23,14:30,0.782,1.143,0.788,1.462,1.068,0.442,0.782,0.735,��쓌,14.4,��
2019/04/23,14:40,0.778,1.141,0.787,1.464,1.068,0.441,0.780,0.735,��쓌,15.2,��
2019/04/23,14:50,0.781,1.140,0.787,1.463,1.068,0.440,0.781,0.735,��쓌,13.5,��
2019/04/23,15:00,0.780,1.143,0.787,1.459,1.068,0.443,0.781,0.736,��쓌,14.6,��
2019/04/23,15:10,0.780,1.144,0.785,1.456,1.070,0.443,0.783,0.736,��쓌,13.0,��
2019/04/23,15:20,0.781,1.142,0.788,1.460,1.070,0.439,0.782,0.736,��쓌,14.1,��
2019/04/23,15:30,0.780,1.144,0.786,1.460,1.069,0.443,0.781,0.737,��쓌,15.8,��
2019/04/23,15:40,0.782,1.145,0.786,1.458,1.070,0.442,0.782,0.737,��쓌,17.6,��
2019/04/23,15:50,0.781,1.141,0.789,1.457,1.070,0.443,0.780,0.735,��쓌,16.3,��
2019/04/23,16:00,0.780,1.145,0.787,1.458,1.069,0.444,0.782,0.737,��쓌,12.7,��
2019/04/23,16:10,0.782,1.144,0.787,1.459,1.068,0.444,0.781,0.736,��쓌,14.6,��
2019/04/23,16:20,0.781,1.146,0.788,1.458,1.067,0.443,0.782,0.736,��쓌,15.5,��
2019/04/23,16:30,0.779,1.143,0.787,1.457,1.067,0.443,0.780,0.736,��쓌,15.2,��
2019/04/23,16:40,0.780,1.144,0.787,1.459,1.070,0.442,0.782,0.737,��쓌,12.7,��
2019/04/23,16:50,0.782,1.145,0.784,1.460,1.067,0.443,0.781,0.736,��쓌,13.1,��
2019/04/23,17:00,0.781,1.145,0.788,1.458,1.069,0.442,0.783,0.735,��,12.5,��
2019/04/23,17:10,0.780,1.146,0.785,1.456,1.066,0.443,0.780,0.736,��,11.7,��
2019/04/23,17:20,0.780,1.145,0.786,1.461,1.069,0.442,0.781,0.736,��쓌,13.3,��
2019/04/23,17:30,0.779,1.144,0.787,1.459,1.069,0.444,0.782,0.735,��,12.5,��
2019/04/23,17:40,0.780,1.144,0.786,1.459,1.068,0.442,0.781,0.736,��,13.8,��
2019/04/23,17:50,0.783,1.143,0.788,1.459,1.068,0.443,0.782,0.738,��,12.4,��
2019/04/23,18:00,0.781,1.143,0.788,1.460,1.067,0.444,0.782,0.737,��,11.9,��
2019/04/23,18:10,0.782,1.145,0.789,1.462,1.067,0.443,0.780,0.738,��,11.1,��
2019/04/23,18:20,0.779,1.147,0.790,1.462,1.069,0.445,0.780,0.739,��,11.0,��
2019/04/23,18:30,0.782,1.145,0.791,1.462,1.069,0.445,0.781,0.739,��,10.2,��
2019/04/23,18:40,0.785,1.146,0.791,1.462,1.067,0.446,0.784,0.738,��,10.2,��
2019/04/23,18:50,0.785,1.147,0.790,1.461,1.068,0.444,0.782,0.739,��,9.0,��
2019/04/23,19:00,0.785,1.148,0.790,1.463,1.069,0.443,0.781,0.740,��,11.8,��
2019/04/23,19:10,0.783,1.147,0.791,1.462,1.068,0.443,0.784,0.738,��,11.7,��
2019/04/23,19:20,0.784,1.148,0.791,1.463,1.068,0.445,0.783,0.739,��,10.3,��
2019/04/23,19:30,0.783,1.148,0.790,1.464,1.069,0.446,0.781,0.740,��,9.9,��
2019/04/23,19:40,0.781,1.148,0.791,1.463,1.070,0.444,0.782,0.740,��,9.3,��
2019/04/23,19:50,0.785,1.148,0.792,1.464,1.070,0.445,0.784,0.738,��,9.7,��
2019/04/23,20:00,0.784,1.148,0.790,1.463,1.069,0.445,0.781,0.737,��,8.6,��
2019/04/23,20:10,0.783,1.149,0.790,1.462,1.067,0.444,0.784,0.737,��,9.2,��
2019/04/23,20:20,0.783,1.148,0.789,1.464,1.068,0.443,0.784,0.740,��,9.7,��
2019/04/23,20:30,0.783,1.148,0.787,1.463,1.069,0.444,0.784,0.739,��,10.7,��
2019/04/23,20:40,0.784,1.149,0.792,1.464,1.069,0.445,0.783,0.738,��,11.1,��
2019/04/23,20:50,0.783,1.149,0.789,1.462,1.068,0.444,0.783,0.739,��,9.1,��
2019/04/23,21:00,0.784,1.148,0.790,1.462,1.069,0.443,0.783,0.738,��,9.7,��
2019/04/23,21:10,0.781,1.148,0.790,1.461,1.068,0.444,0.783,0.740,��,9.9,��
2019/04/23,21:20,0.782,1.147,0.791,1.460,1.068,0.443,0.784,0.737,��,9.2,��
2019/04/23,21:30,0.784,1.149,0.789,1.463,1.067,0.443,0.782,0.738,��,10.2,��
2019/04/23,21:40,0.781,1.147,0.791,1.462,1.068,0.444,0.783,0.739,��,9.2,��
2019/04/23,21:50,0.783,1.148,0.792,1.463,1.068,0.445,0.783,0.741,��,9.9,��
2019/04/23,22:00,0.782,1.145,0.791,1.462,1.067,0.445,0.783,0.739,��,9.1,��
2019/04/23,22:10,0.781,1.147,0.789,1.462,1.069,0.444,0.783,0.739,��,8.4,��
2019/04/23,22:20,0.783,1.147,0.790,1.463,1.069,0.444,0.784,0.739,��,9.7,��
2019/04/23,22:30,0.782,1.148,0.789,1.461,1.069,0.445,0.782,0.737,��,10.2,��
2019/04/23,22:40,0.782,1.147,0.791,1.464,1.069,0.443,0.780,0.740,��,10.5,��
2019/04/23,22:50,0.783,1.146,0.791,1.463,1.070,0.444,0.782,0.739,��,10.5,��
2019/04/23,23:00,0.784,1.147,0.792,1.462,1.068,0.446,0.781,0.739,��,8.8,��
2019/04/23,23:10,0.782,1.145,0.788,1.466,1.068,0.443,0.781,0.739,��,8.5,��
2019/04/23,23:20,0.782,1.147,0.791,1.462,1.068,0.446,0.782,0.738,��,8.5,��
2019/04/23,23:30,0.781,1.146,0.789,1.462,1.069,0.444,0.783,0.739,��,7.6,��
2019/04/23,23:40,0.783,1.148,0.788,1.463,1.067,0.444,0.784,0.740,��,7.3,��
2019/04/23,23:50,0.783,1.147,0.789,1.464,1.070,0.444,0.784,0.738,��,6.4,��
